Location: Pl�tzky
(52.0521°N, 11.8020°E)
Time: 10:58:39
(UTC+00:00)

USA 229 - Pass Details

Date: 26 February 2020
Orbit: 986 x 1226 km, 63.4° (Epoch: 26 March)

Event Time Altitude Azimuth Distance (km) Brightness Sun altitude
Rises 21:47:08 0° 301° (WNW) 3,853 7.3 -42.2°
Reaches altitude 10° 21:49:58 10° 310° (NW) 2,933 6.6 -42.4°
Enters shadow 21:54:29 32° 345° (NNW) 1,806 5.2 -42.8°
